Simultaneous Nadir Overpasses (SNOs) Predictions

Prediction of SNOs between METOP-A and TERRA Satellite Orbit:

Table of predicted SNOs for the next 14.0 days since TLE Epoch: 6/26/2021
Index Date (METOP-A) Time (METOP-A) Lat,Lon (METOP-A) SZA (METOP-A ) Date (TERRA) Time (TERRA) Lat,Lon (TERRA) SZA (TERRA ) Distance(km) Time Diff (sec)
1 06/27/2021 05:22:43 -81.33, -35.51 119.38 06/27/2021 05:23:57 -81.27, -35.49 119.39 6.72 74
2 06/27/2021 06:13:22 81.31, 132.57 60.69 06/27/2021 06:13:22 81.30, 132.61 60.69 0.89 0
3 06/27/2021 07:04:02 -81.30, -59.88 119.29 06/27/2021 07:02:49 -81.29, -59.84 119.33 0.71 73
4 06/30/2021 00:57:03 -81.31, 31.42 119.21 06/30/2021 00:58:08 -81.30, 31.49 119.18 1.42 65
5 06/30/2021 01:47:43 81.30,-160.89 60.83 06/30/2021 01:47:34 81.31,-160.81 60.84 1.73 9
6 07/02/2021 20:31:24 -81.30, 97.95 119.02 07/02/2021 20:32:20 -81.31, 98.05 118.98 1.92 56
7 07/02/2021 21:22:04 81.31, -94.76 60.98 07/02/2021 21:21:46 81.29, -94.65 60.98 2.42 18
8 07/05/2021 16:05:45 -81.31, 164.08 118.81 07/05/2021 16:06:32 -81.29, 164.20 118.79 2.83 47
9 07/05/2021 16:56:25 81.30, -28.26 61.22 07/05/2021 16:55:58 81.30, -28.15 61.22 1.98 27
10 07/08/2021 11:40:06 -81.31,-129.43 118.52 07/08/2021 11:40:44 -81.30,-129.31 118.49 2.19 38



Historial Predications of SNOs between METOP-A and TERRA
